Year,Month,Day,Hour,Minute,Value (Times are PST for temperature in C)
2016,12,12,00,00,4.30
2016,12,12,00,01,4.30
2016,12,12,00,02,4.30
2016,12,12,00,03,4.30
2016,12,12,00,04,4.30
2016,12,12,00,05,4.30
2016,12,12,00,06,4.30
2016,12,12,00,07,4.30
2016,12,12,00,08,4.40
2016,12,12,00,09,4.40
2016,12,12,00,10,4.40
2016,12,12,00,11,4.40
2016,12,12,00,12,4.40
2016,12,12,00,13,4.40
2016,12,12,00,14,4.40
2016,12,12,00,15,4.40
2016,12,12,00,16,4.40
2016,12,12,00,17,4.40
2016,12,12,00,18,4.40
2016,12,12,00,19,4.40
2016,12,12,00,20,4.40
2016,12,12,00,21,4.40
2016,12,12,00,22,4.40
2016,12,12,00,23,4.40
2016,12,12,00,24,4.40
2016,12,12,00,25,4.40
2016,12,12,00,26,4.40
2016,12,12,00,27,4.50
2016,12,12,00,28,4.50
2016,12,12,00,29,4.60
2016,12,12,00,30,4.60
2016,12,12,00,31,4.60
2016,12,12,00,32,4.60
2016,12,12,00,33,4.70
2016,12,12,00,34,4.70
2016,12,12,00,35,4.80
2016,12,12,00,36,4.90
2016,12,12,00,37,4.90
2016,12,12,00,38,5.00
2016,12,12,00,39,5.00
2016,12,12,00,40,5.10
2016,12,12,00,41,5.10
2016,12,12,00,42,5.10
2016,12,12,00,43,5.10
2016,12,12,00,44,5.10
2016,12,12,00,45,5.20
2016,12,12,00,46,5.20
2016,12,12,00,47,5.20
2016,12,12,00,48,5.20
2016,12,12,00,49,5.30
2016,12,12,00,50,5.30
2016,12,12,00,51,5.30
2016,12,12,00,52,5.40
2016,12,12,00,53,5.40
2016,12,12,00,54,5.50
2016,12,12,00,55,5.50
2016,12,12,00,56,5.50
2016,12,12,00,57,5.50
2016,12,12,00,58,5.60
2016,12,12,00,59,5.60
2016,12,12,01,00,5.60
2016,12,12,01,01,5.60
2016,12,12,01,02,5.60
2016,12,12,01,03,5.60
2016,12,12,01,04,5.70
2016,12,12,01,05,5.70
2016,12,12,01,06,5.70
2016,12,12,01,07,5.70
2016,12,12,01,08,5.80
2016,12,12,01,09,5.80
2016,12,12,01,10,5.80
2016,12,12,01,11,5.80
2016,12,12,01,12,5.80
2016,12,12,01,13,5.80
2016,12,12,01,14,5.90
2016,12,12,01,15,5.90
2016,12,12,01,16,5.90
2016,12,12,01,17,5.90
2016,12,12,01,18,5.90
2016,12,12,01,19,5.90
2016,12,12,01,20,5.90
2016,12,12,01,21,5.90
2016,12,12,01,22,5.90
2016,12,12,01,23,5.90
2016,12,12,01,24,5.80
2016,12,12,01,25,5.90
2016,12,12,01,26,5.90
2016,12,12,01,27,6.00
2016,12,12,01,28,6.00
2016,12,12,01,29,6.00
2016,12,12,01,30,6.00
2016,12,12,01,31,6.00
2016,12,12,01,32,6.00
2016,12,12,01,33,6.00
2016,12,12,01,34,6.10
2016,12,12,01,35,6.10
2016,12,12,01,36,6.10
2016,12,12,01,37,6.10
2016,12,12,01,38,6.10
2016,12,12,01,39,6.10
2016,12,12,01,40,6.10
2016,12,12,01,41,6.10
2016,12,12,01,42,6.10
2016,12,12,01,43,6.10
2016,12,12,01,44,6.10
2016,12,12,01,45,6.10
2016,12,12,01,46,6.10
2016,12,12,01,47,6.10
2016,12,12,01,48,6.10
2016,12,12,01,49,6.10
2016,12,12,01,50,6.10
2016,12,12,01,51,6.10
2016,12,12,01,52,6.10
2016,12,12,01,53,6.10
2016,12,12,01,54,6.10
2016,12,12,01,55,6.10
2016,12,12,01,56,6.10
2016,12,12,01,57,6.10
2016,12,12,01,58,6.10
2016,12,12,01,59,6.00
2016,12,12,02,00,6.00
2016,12,12,02,01,6.00
2016,12,12,02,02,6.00
2016,12,12,02,03,6.10
2016,12,12,02,04,6.10
2016,12,12,02,05,6.00
2016,12,12,02,06,6.00
2016,12,12,02,07,6.00
2016,12,12,02,08,6.00
2016,12,12,02,09,6.00
2016,12,12,02,10,6.00
2016,12,12,02,11,6.00
2016,12,12,02,12,6.00
2016,12,12,02,13,6.00
2016,12,12,02,14,6.00
2016,12,12,02,15,6.00
2016,12,12,02,16,5.90
2016,12,12,02,17,5.90
2016,12,12,02,18,5.90
2016,12,12,02,19,5.90
2016,12,12,02,20,5.90
2016,12,12,02,21,5.90
2016,12,12,02,22,5.80
2016,12,12,02,23,5.80
2016,12,12,02,24,5.80
2016,12,12,02,25,5.90
2016,12,12,02,26,5.90
2016,12,12,02,27,5.90
2016,12,12,02,28,5.90
2016,12,12,02,29,5.90
2016,12,12,02,30,5.90
2016,12,12,02,31,5.90
2016,12,12,02,32,5.90
2016,12,12,02,33,5.90
2016,12,12,02,34,5.90
2016,12,12,02,35,5.90
2016,12,12,02,36,5.90
2016,12,12,02,37,5.90
2016,12,12,02,38,5.90
2016,12,12,02,39,5.90
2016,12,12,02,40,5.90
2016,12,12,02,41,5.90
2016,12,12,02,42,5.90
2016,12,12,02,43,5.90
2016,12,12,02,44,5.90
2016,12,12,02,45,5.90
2016,12,12,02,46,5.90
2016,12,12,02,47,6.00
2016,12,12,02,48,6.00
2016,12,12,02,49,6.00
2016,12,12,02,50,6.00
2016,12,12,02,51,6.00
2016,12,12,02,52,6.10
2016,12,12,02,53,6.10
2016,12,12,02,54,6.10
2016,12,12,02,55,6.00
2016,12,12,02,56,6.00
2016,12,12,02,57,6.00
2016,12,12,02,58,5.90
2016,12,12,02,59,5.80
2016,12,12,03,00,5.70
2016,12,12,03,01,5.70
2016,12,12,03,02,5.60
2016,12,12,03,03,5.50
2016,12,12,03,04,5.40
2016,12,12,03,05,5.40
2016,12,12,03,06,5.30
2016,12,12,03,07,5.30
2016,12,12,03,08,5.20
2016,12,12,03,09,5.20
2016,12,12,03,10,5.20
2016,12,12,03,11,5.10
2016,12,12,03,12,5.10
2016,12,12,03,13,5.10
2016,12,12,03,14,5.00
2016,12,12,03,15,5.00
2016,12,12,03,16,4.90
2016,12,12,03,17,4.80
2016,12,12,03,18,4.80
2016,12,12,03,19,4.80
2016,12,12,03,20,4.80
2016,12,12,03,21,4.80
2016,12,12,03,22,4.70
2016,12,12,03,23,4.70
2016,12,12,03,24,4.70
2016,12,12,03,25,4.70
2016,12,12,03,26,4.60
2016,12,12,03,27,4.60
2016,12,12,03,28,4.60
2016,12,12,03,29,4.60
2016,12,12,03,30,4.60
2016,12,12,03,31,4.50
2016,12,12,03,32,4.50
2016,12,12,03,33,4.50
2016,12,12,03,34,4.50
2016,12,12,03,35,4.40
2016,12,12,03,36,4.40
2016,12,12,03,37,4.40
2016,12,12,03,38,4.40
2016,12,12,03,39,4.40
2016,12,12,03,40,4.40
2016,12,12,03,41,4.40
2016,12,12,03,42,4.30
2016,12,12,03,43,4.30
2016,12,12,03,44,4.30
2016,12,12,03,45,4.30
2016,12,12,03,46,4.30
2016,12,12,03,47,4.20
2016,12,12,03,48,4.30
2016,12,12,03,49,4.30
2016,12,12,03,50,4.20
2016,12,12,03,51,4.20
2016,12,12,03,52,4.20
2016,12,12,03,53,4.20
2016,12,12,03,54,4.20
2016,12,12,03,55,4.20
2016,12,12,03,56,4.20
2016,12,12,03,57,4.20
2016,12,12,03,58,4.20
2016,12,12,03,59,4.20
2016,12,12,04,00,4.20
2016,12,12,04,01,4.10
2016,12,12,04,02,4.10
2016,12,12,04,03,4.20
2016,12,12,04,04,4.20
2016,12,12,04,05,4.20
2016,12,12,04,06,4.20
2016,12,12,04,07,4.20
2016,12,12,04,08,4.20
2016,12,12,04,09,4.20
2016,12,12,04,10,4.20
2016,12,12,04,11,4.20
2016,12,12,04,12,4.20
2016,12,12,04,13,4.20
2016,12,12,04,14,4.30
2016,12,12,04,15,4.30
2016,12,12,04,16,4.30
2016,12,12,04,17,4.30
2016,12,12,04,18,4.30
2016,12,12,04,19,4.30
2016,12,12,04,20,4.30
2016,12,12,04,21,4.30
2016,12,12,04,22,4.30
2016,12,12,04,23,4.30
2016,12,12,04,24,4.30
2016,12,12,04,25,4.30
2016,12,12,04,26,4.30
2016,12,12,04,27,4.30
2016,12,12,04,28,4.30
2016,12,12,04,29,4.30
2016,12,12,04,30,4.30
2016,12,12,04,31,4.30
2016,12,12,04,32,4.30
2016,12,12,04,33,4.20
2016,12,12,04,34,4.20
2016,12,12,04,35,4.20
2016,12,12,04,36,4.20
2016,12,12,04,37,4.20
2016,12,12,04,38,4.20
2016,12,12,04,39,4.20
2016,12,12,04,40,4.20
2016,12,12,04,41,4.20
2016,12,12,04,42,4.20
2016,12,12,04,43,4.20
2016,12,12,04,44,4.20
2016,12,12,04,45,4.20
2016,12,12,04,46,4.20
2016,12,12,04,47,4.10
2016,12,12,04,48,4.10
2016,12,12,04,49,4.10
2016,12,12,04,50,4.10
2016,12,12,04,51,4.10
2016,12,12,04,52,4.10
2016,12,12,04,53,4.10
2016,12,12,04,54,4.10
2016,12,12,04,55,4.10
2016,12,12,04,56,4.10
2016,12,12,04,57,4.10
2016,12,12,04,58,4.00
2016,12,12,04,59,4.00
2016,12,12,05,00,4.00
2016,12,12,05,01,4.00
2016,12,12,05,02,4.00
2016,12,12,05,03,3.90
2016,12,12,05,04,3.90
2016,12,12,05,05,3.90
2016,12,12,05,06,3.90
2016,12,12,05,07,3.90
2016,12,12,05,08,3.90
2016,12,12,05,09,3.90
2016,12,12,05,10,3.90
2016,12,12,05,11,3.90
2016,12,12,05,12,3.90
2016,12,12,05,13,3.90
2016,12,12,05,14,3.80
2016,12,12,05,15,3.80
2016,12,12,05,16,3.80
2016,12,12,05,17,3.80
2016,12,12,05,18,3.80
2016,12,12,05,19,3.80
2016,12,12,05,20,3.80
2016,12,12,05,21,3.70
2016,12,12,05,22,3.70
2016,12,12,05,23,3.70
2016,12,12,05,24,3.70
2016,12,12,05,25,3.70
2016,12,12,05,26,3.70
2016,12,12,05,27,3.60
2016,12,12,05,28,3.60
2016,12,12,05,29,3.60
2016,12,12,05,30,3.60
2016,12,12,05,31,3.60
2016,12,12,05,32,3.60
2016,12,12,05,33,3.60
2016,12,12,05,34,3.60
2016,12,12,05,35,3.60
2016,12,12,05,36,3.60
2016,12,12,05,37,3.60
2016,12,12,05,38,3.60
2016,12,12,05,39,3.60
2016,12,12,05,40,3.60
2016,12,12,05,41,3.60
2016,12,12,05,42,3.70
2016,12,12,05,43,3.70
2016,12,12,05,44,3.70
2016,12,12,05,45,3.60
2016,12,12,05,46,3.60
2016,12,12,05,47,3.60
2016,12,12,05,48,3.60
2016,12,12,05,49,3.60
2016,12,12,05,50,3.60
2016,12,12,05,51,3.60
2016,12,12,05,52,3.60
2016,12,12,05,53,3.60
2016,12,12,05,54,3.60
2016,12,12,05,55,3.50
2016,12,12,05,56,3.60
2016,12,12,05,57,3.50
2016,12,12,05,58,3.50
2016,12,12,05,59,3.50
2016,12,12,06,00,3.50
2016,12,12,06,01,3.60
2016,12,12,06,02,3.50
2016,12,12,06,03,3.50
2016,12,12,06,04,3.50
2016,12,12,06,05,3.50
2016,12,12,06,06,3.40
2016,12,12,06,07,3.40
2016,12,12,06,08,3.40
2016,12,12,06,09,3.40
2016,12,12,06,10,3.40
2016,12,12,06,11,3.30
2016,12,12,06,12,3.40
2016,12,12,06,13,3.40
2016,12,12,06,14,3.40
2016,12,12,06,15,3.40
2016,12,12,06,16,3.30
2016,12,12,06,17,3.30
2016,12,12,06,18,3.30
2016,12,12,06,19,3.30
2016,12,12,06,20,3.40
2016,12,12,06,21,3.40
2016,12,12,06,22,3.40
2016,12,12,06,23,3.40
2016,12,12,06,24,3.40
2016,12,12,06,25,3.40
2016,12,12,06,26,3.30
2016,12,12,06,27,3.30
2016,12,12,06,28,3.30
2016,12,12,06,29,3.30
2016,12,12,06,30,3.30
2016,12,12,06,31,3.30
2016,12,12,06,32,3.30
2016,12,12,06,33,3.30
2016,12,12,06,34,3.30
2016,12,12,06,35,3.30
2016,12,12,06,36,3.30
2016,12,12,06,37,3.30
2016,12,12,06,38,3.30
2016,12,12,06,39,3.30
2016,12,12,06,40,3.30
2016,12,12,06,41,3.20
2016,12,12,06,42,3.20
2016,12,12,06,43,3.20
2016,12,12,06,44,3.20
2016,12,12,06,45,3.20
2016,12,12,06,46,3.20
2016,12,12,06,47,3.20
2016,12,12,06,48,3.20
2016,12,12,06,49,3.20
2016,12,12,06,50,3.20
2016,12,12,06,51,3.20
2016,12,12,06,52,3.20
2016,12,12,06,53,3.20
2016,12,12,06,54,3.20
2016,12,12,06,55,3.20
2016,12,12,06,56,3.20
2016,12,12,06,57,3.20
2016,12,12,06,58,3.10
2016,12,12,06,59,3.10
2016,12,12,07,00,3.10
2016,12,12,07,01,3.10
2016,12,12,07,02,3.10
2016,12,12,07,03,3.10
2016,12,12,07,04,3.00
2016,12,12,07,05,3.00
2016,12,12,07,06,3.00
2016,12,12,07,07,2.90
2016,12,12,07,08,2.90
2016,12,12,07,09,2.90
2016,12,12,07,10,2.80
2016,12,12,07,11,2.80
2016,12,12,07,12,2.80
2016,12,12,07,13,2.80
2016,12,12,07,14,2.80
2016,12,12,07,15,2.80
2016,12,12,07,16,2.80
2016,12,12,07,17,2.80
2016,12,12,07,18,2.70
2016,12,12,07,19,2.70
2016,12,12,07,20,2.70
2016,12,12,07,21,2.70
2016,12,12,07,22,2.60
2016,12,12,07,23,2.70
2016,12,12,07,24,2.70
2016,12,12,07,25,2.70
2016,12,12,07,26,2.70
2016,12,12,07,27,2.70
2016,12,12,07,28,2.60
2016,12,12,07,29,2.60
2016,12,12,07,30,2.60
2016,12,12,07,31,2.50
2016,12,12,07,32,2.60
2016,12,12,07,33,2.50
2016,12,12,07,34,2.50
2016,12,12,07,35,2.60
2016,12,12,07,36,2.60
2016,12,12,07,37,2.60
2016,12,12,07,38,2.50
2016,12,12,07,39,2.50
2016,12,12,07,40,2.50
2016,12,12,07,41,2.40
2016,12,12,07,42,2.40
2016,12,12,07,43,2.40
2016,12,12,07,44,2.30
2016,12,12,07,45,2.30
2016,12,12,07,46,2.30
2016,12,12,07,47,2.30
2016,12,12,07,48,2.30
2016,12,12,07,49,2.30
2016,12,12,07,50,2.30
2016,12,12,07,51,2.30
2016,12,12,07,52,2.30
2016,12,12,07,53,2.20
2016,12,12,07,54,2.20
2016,12,12,07,55,2.20
2016,12,12,07,56,2.10
2016,12,12,07,57,2.10
2016,12,12,07,58,2.10
2016,12,12,07,59,2.10
2016,12,12,08,00,2.10
2016,12,12,08,01,2.10
2016,12,12,08,02,2.10
2016,12,12,08,03,2.10
2016,12,12,08,04,2.10
2016,12,12,08,05,2.10
2016,12,12,08,06,2.10
2016,12,12,08,07,2.10
2016,12,12,08,08,2.10
2016,12,12,08,09,2.10
2016,12,12,08,10,2.10
2016,12,12,08,11,2.00
2016,12,12,08,12,2.00
2016,12,12,08,13,2.00
2016,12,12,08,14,2.00
2016,12,12,08,15,2.00
2016,12,12,08,16,2.00
2016,12,12,08,17,1.90
2016,12,12,08,18,1.90
2016,12,12,08,19,1.90
2016,12,12,08,20,1.90
2016,12,12,08,21,1.90
2016,12,12,08,22,1.90
2016,12,12,08,23,1.90
2016,12,12,08,24,1.90
2016,12,12,08,25,1.90
2016,12,12,08,26,1.90
2016,12,12,08,27,1.90
2016,12,12,08,28,1.90
2016,12,12,08,29,1.90
2016,12,12,08,30,1.90
2016,12,12,08,31,1.90
2016,12,12,08,32,1.90
2016,12,12,08,33,2.00
2016,12,12,08,34,2.00
2016,12,12,08,35,1.90
2016,12,12,08,36,1.90
2016,12,12,08,37,1.90
2016,12,12,08,38,1.80
2016,12,12,08,39,1.80
2016,12,12,08,40,1.80
2016,12,12,08,41,1.80
2016,12,12,08,42,1.80
2016,12,12,08,43,1.80
2016,12,12,08,44,1.80
2016,12,12,08,45,1.80
2016,12,12,08,46,1.80
2016,12,12,08,47,1.80
2016,12,12,08,48,1.80
2016,12,12,08,49,1.70
2016,12,12,08,50,1.70
2016,12,12,08,51,1.70
2016,12,12,08,52,1.70
2016,12,12,08,53,1.70
2016,12,12,08,54,1.70
2016,12,12,08,55,1.70
2016,12,12,08,56,1.70
2016,12,12,08,57,1.70
2016,12,12,08,58,1.70
2016,12,12,08,59,1.70
2016,12,12,09,00,1.70
2016,12,12,09,01,1.70
2016,12,12,09,02,1.70
2016,12,12,09,03,1.70
2016,12,12,09,04,1.70
2016,12,12,09,05,1.70
2016,12,12,09,06,1.70
2016,12,12,09,07,1.70
2016,12,12,09,08,1.70
2016,12,12,09,09,1.70
2016,12,12,09,10,1.70
2016,12,12,09,11,1.70
2016,12,12,09,12,1.70
2016,12,12,09,13,1.70
2016,12,12,09,14,1.70
2016,12,12,09,15,1.60
2016,12,12,09,16,1.60
2016,12,12,09,17,1.60
2016,12,12,09,18,1.60
2016,12,12,09,19,1.60
2016,12,12,09,20,1.60
2016,12,12,09,21,1.60
2016,12,12,09,22,1.60
2016,12,12,09,23,1.70
2016,12,12,09,24,1.70
2016,12,12,09,25,1.70
2016,12,12,09,26,1.70
2016,12,12,09,27,1.70
2016,12,12,09,28,1.70
2016,12,12,09,29,1.80
2016,12,12,09,30,1.80
2016,12,12,09,31,1.80
2016,12,12,09,32,1.80
2016,12,12,09,33,1.80
2016,12,12,09,34,1.80
2016,12,12,09,35,1.80
2016,12,12,09,36,1.80
2016,12,12,09,37,1.80
2016,12,12,09,38,1.80
2016,12,12,09,39,1.80
2016,12,12,09,40,1.80
2016,12,12,09,41,1.80
2016,12,12,09,42,1.80
2016,12,12,09,43,1.80
2016,12,12,09,44,1.80
2016,12,12,09,45,1.90
2016,12,12,09,46,1.80
2016,12,12,09,47,1.80
2016,12,12,09,48,1.80
2016,12,12,09,49,1.80
2016,12,12,09,50,1.80
2016,12,12,09,51,1.80
2016,12,12,09,52,1.80
2016,12,12,09,53,1.80
2016,12,12,09,54,1.80
2016,12,12,09,55,1.80
2016,12,12,09,56,1.80
2016,12,12,09,57,1.80
2016,12,12,09,58,1.80
2016,12,12,09,59,1.80
2016,12,12,10,00,1.80
2016,12,12,10,01,1.80
2016,12,12,10,02,1.80
2016,12,12,10,03,1.80
2016,12,12,10,04,1.80
2016,12,12,10,05,1.80
2016,12,12,10,06,1.80
2016,12,12,10,07,1.80
2016,12,12,10,08,1.80
2016,12,12,10,09,1.80
2016,12,12,10,10,1.80
2016,12,12,10,11,1.80
2016,12,12,10,12,1.80
2016,12,12,10,13,1.90
2016,12,12,10,14,1.90
2016,12,12,10,15,1.90
2016,12,12,10,16,1.90
2016,12,12,10,17,1.90
2016,12,12,10,18,1.90
2016,12,12,10,19,1.90
2016,12,12,10,20,1.90
2016,12,12,10,21,1.90
2016,12,12,10,22,1.90
2016,12,12,10,23,2.00
2016,12,12,10,24,2.00
2016,12,12,10,25,2.00
2016,12,12,10,26,2.00
2016,12,12,10,27,2.00
2016,12,12,10,28,2.00
2016,12,12,10,29,2.00
2016,12,12,10,30,2.00
2016,12,12,10,31,2.00
2016,12,12,10,32,2.00
2016,12,12,10,33,2.10
2016,12,12,10,34,2.10
2016,12,12,10,35,2.00
2016,12,12,10,36,2.00
2016,12,12,10,37,2.00
2016,12,12,10,38,2.00
2016,12,12,10,39,2.00
2016,12,12,10,40,2.00
2016,12,12,10,41,1.90
2016,12,12,10,42,1.90
2016,12,12,10,43,1.90
2016,12,12,10,44,1.90
2016,12,12,10,45,1.90
2016,12,12,10,46,1.90
2016,12,12,10,47,1.90
2016,12,12,10,48,1.90
2016,12,12,10,49,1.90
2016,12,12,10,50,1.90
2016,12,12,10,51,1.90
2016,12,12,10,52,1.90
2016,12,12,10,53,1.90
2016,12,12,10,54,1.90
2016,12,12,10,55,1.90
2016,12,12,10,56,1.90
2016,12,12,10,57,1.90
2016,12,12,10,58,2.00
2016,12,12,10,59,2.00
2016,12,12,11,00,2.00
2016,12,12,11,01,2.00
2016,12,12,11,02,2.10
2016,12,12,11,03,2.10
2016,12,12,11,04,2.10
2016,12,12,11,05,2.00
2016,12,12,11,06,2.00
2016,12,12,11,07,2.00
2016,12,12,11,08,2.00
2016,12,12,11,09,2.10
2016,12,12,11,10,2.10
2016,12,12,11,11,2.10
2016,12,12,11,12,2.00
2016,12,12,11,13,2.00
2016,12,12,11,14,2.00
2016,12,12,11,15,2.10
2016,12,12,11,16,2.00
2016,12,12,11,17,2.10
2016,12,12,11,18,2.10
2016,12,12,11,19,2.10
2016,12,12,11,20,2.10
2016,12,12,11,21,2.10
2016,12,12,11,22,2.10
2016,12,12,11,23,2.10
2016,12,12,11,24,2.10
2016,12,12,11,25,2.10
2016,12,12,11,26,2.20
2016,12,12,11,27,2.20
2016,12,12,11,28,2.20
2016,12,12,11,29,2.20
2016,12,12,11,30,2.20
2016,12,12,11,31,2.20
2016,12,12,11,32,2.20
2016,12,12,11,33,2.20
2016,12,12,11,34,2.20
2016,12,12,11,35,2.20
2016,12,12,11,36,2.20
2016,12,12,11,37,2.30
2016,12,12,11,38,2.30
2016,12,12,11,39,2.30
2016,12,12,11,40,2.30
2016,12,12,11,41,2.30
2016,12,12,11,42,2.40
2016,12,12,11,43,2.40
2016,12,12,11,44,2.40
2016,12,12,11,45,2.40
2016,12,12,11,46,2.40
2016,12,12,11,47,2.40
2016,12,12,11,48,2.40
2016,12,12,11,49,2.50
2016,12,12,11,50,2.40
2016,12,12,11,51,2.40
2016,12,12,11,52,2.40
2016,12,12,11,53,2.40
2016,12,12,11,54,2.50
2016,12,12,11,55,2.50
2016,12,12,11,56,2.50
2016,12,12,11,57,2.50
2016,12,12,11,58,2.50
2016,12,12,11,59,2.50
2016,12,12,12,00,2.50
2016,12,12,12,01,2.60
2016,12,12,12,02,2.60
2016,12,12,12,03,2.60
2016,12,12,12,04,2.60
2016,12,12,12,05,2.60
2016,12,12,12,06,2.60
2016,12,12,12,07,2.60
2016,12,12,12,08,2.60
2016,12,12,12,09,2.60
2016,12,12,12,10,2.60
2016,12,12,12,11,2.60
2016,12,12,12,12,2.60
2016,12,12,12,13,2.60
2016,12,12,12,14,2.60
2016,12,12,12,15,2.60
2016,12,12,12,16,2.60
2016,12,12,12,17,2.70
2016,12,12,12,18,2.70
2016,12,12,12,19,2.70
2016,12,12,12,20,2.70
2016,12,12,12,21,2.70
2016,12,12,12,22,2.70
2016,12,12,12,23,2.70
2016,12,12,12,24,2.70
2016,12,12,12,25,2.70
2016,12,12,12,26,2.70
2016,12,12,12,27,2.70
2016,12,12,12,28,2.70
2016,12,12,12,29,2.70
2016,12,12,12,30,2.70
2016,12,12,12,31,2.70
2016,12,12,12,32,2.70
2016,12,12,12,33,2.70
2016,12,12,12,34,2.70
2016,12,12,12,35,2.70
2016,12,12,12,36,2.70
2016,12,12,12,37,2.70
2016,12,12,12,38,2.70
2016,12,12,12,39,2.70
2016,12,12,12,40,2.70
2016,12,12,12,41,2.70
2016,12,12,12,42,2.70
2016,12,12,12,43,2.70
2016,12,12,12,44,2.70
2016,12,12,12,45,2.70
2016,12,12,12,46,2.70
2016,12,12,12,47,2.70
2016,12,12,12,48,2.70
2016,12,12,12,49,2.70
2016,12,12,12,50,2.70
2016,12,12,12,51,2.70
2016,12,12,12,52,2.60
2016,12,12,12,53,2.60
2016,12,12,12,54,2.60
2016,12,12,12,55,2.60
2016,12,12,12,56,2.60
2016,12,12,12,57,2.70
2016,12,12,12,58,2.70
2016,12,12,12,59,2.70
2016,12,12,13,00,2.60
2016,12,12,13,01,2.60
2016,12,12,13,02,2.70
2016,12,12,13,03,2.70
2016,12,12,13,04,2.70
2016,12,12,13,05,2.70
2016,12,12,13,06,2.60
2016,12,12,13,07,2.60
2016,12,12,13,08,2.60
2016,12,12,13,09,2.60
2016,12,12,13,10,2.60
2016,12,12,13,11,2.60
2016,12,12,13,12,2.60
2016,12,12,13,13,2.60
2016,12,12,13,14,2.60
2016,12,12,13,15,2.60
2016,12,12,13,16,2.60
2016,12,12,13,17,2.60
2016,12,12,13,18,2.60
2016,12,12,13,19,2.60
2016,12,12,13,20,2.60
2016,12,12,13,21,2.60
2016,12,12,13,22,2.60
2016,12,12,13,23,2.60
2016,12,12,13,24,2.60
2016,12,12,13,25,2.60
2016,12,12,13,26,2.70
2016,12,12,13,27,2.70
2016,12,12,13,28,2.70
2016,12,12,13,29,2.70
2016,12,12,13,30,2.70
2016,12,12,13,31,2.70
2016,12,12,13,32,2.70
2016,12,12,13,33,2.70
2016,12,12,13,34,2.70
2016,12,12,13,35,2.70
2016,12,12,13,36,2.70
2016,12,12,13,37,2.70
2016,12,12,13,38,2.70
2016,12,12,13,39,2.80
2016,12,12,13,40,2.80
2016,12,12,13,41,2.80
2016,12,12,13,42,2.80
2016,12,12,13,43,2.80
2016,12,12,13,44,2.80
2016,12,12,13,45,2.90
2016,12,12,13,46,2.90
2016,12,12,13,47,2.80
2016,12,12,13,48,2.80
2016,12,12,13,49,2.80
2016,12,12,13,50,2.80
2016,12,12,13,51,2.80
2016,12,12,13,52,2.80
2016,12,12,13,53,2.80
2016,12,12,13,54,2.80
2016,12,12,13,55,2.80
2016,12,12,13,56,2.80
2016,12,12,13,57,2.80
2016,12,12,13,58,2.80
2016,12,12,13,59,2.80
2016,12,12,14,00,2.80
2016,12,12,14,01,2.80
2016,12,12,14,02,2.90
2016,12,12,14,03,2.90
2016,12,12,14,04,2.90
2016,12,12,14,05,2.90
2016,12,12,14,06,2.90
2016,12,12,14,07,2.80
2016,12,12,14,08,2.80
2016,12,12,14,09,2.80
2016,12,12,14,10,2.90
2016,12,12,14,11,2.90
2016,12,12,14,12,2.90
2016,12,12,14,13,2.90
2016,12,12,14,14,3.00
2016,12,12,14,15,3.00
2016,12,12,14,16,3.00
2016,12,12,14,17,3.00
2016,12,12,14,18,3.10
2016,12,12,14,19,3.10
2016,12,12,14,20,3.10
2016,12,12,14,21,3.10
2016,12,12,14,22,3.20
2016,12,12,14,23,3.20
2016,12,12,14,24,3.30
2016,12,12,14,25,3.40
2016,12,12,14,26,3.50
2016,12,12,14,27,3.60
2016,12,12,14,28,3.60
2016,12,12,14,29,3.60
2016,12,12,14,30,3.60
2016,12,12,14,31,3.60
2016,12,12,14,32,3.60
2016,12,12,14,33,3.50
2016,12,12,14,34,3.50
2016,12,12,14,35,3.40
2016,12,12,14,36,3.30
2016,12,12,14,37,3.40
2016,12,12,14,38,3.40
2016,12,12,14,39,3.40
2016,12,12,14,40,3.50
2016,12,12,14,41,3.60
2016,12,12,14,42,3.60
2016,12,12,14,43,3.60
2016,12,12,14,44,3.60
2016,12,12,14,45,3.60
2016,12,12,14,46,3.60
2016,12,12,14,47,3.70
2016,12,12,14,48,3.70
2016,12,12,14,49,3.70
2016,12,12,14,50,3.60
2016,12,12,14,51,3.60
2016,12,12,14,52,3.50
2016,12,12,14,53,3.40
2016,12,12,14,54,3.40
2016,12,12,14,55,3.30
2016,12,12,14,56,3.30
2016,12,12,14,57,3.20
2016,12,12,14,58,3.20
2016,12,12,14,59,3.20
2016,12,12,15,00,3.10
2016,12,12,15,01,3.10
2016,12,12,15,02,3.10
2016,12,12,15,03,3.00
2016,12,12,15,04,3.00
2016,12,12,15,05,3.00
2016,12,12,15,06,3.00
2016,12,12,15,07,3.00
2016,12,12,15,08,3.00
2016,12,12,15,09,2.90
2016,12,12,15,10,2.90
2016,12,12,15,11,2.90
2016,12,12,15,12,2.90
2016,12,12,15,13,2.90
2016,12,12,15,14,2.80
2016,12,12,15,15,2.80
2016,12,12,15,16,2.80
2016,12,12,15,17,2.80
2016,12,12,15,18,2.80
2016,12,12,15,19,2.70
2016,12,12,15,20,2.70
2016,12,12,15,21,2.70
2016,12,12,15,22,2.70
2016,12,12,15,23,2.70
2016,12,12,15,24,2.60
2016,12,12,15,25,2.60
2016,12,12,15,26,2.60
2016,12,12,15,27,2.60
2016,12,12,15,28,2.60
2016,12,12,15,29,2.60
2016,12,12,15,30,2.60
2016,12,12,15,31,2.70
2016,12,12,15,32,2.70
2016,12,12,15,33,2.70
2016,12,12,15,34,2.70
2016,12,12,15,35,2.70
2016,12,12,15,36,2.70
2016,12,12,15,37,2.70
2016,12,12,15,38,2.70
2016,12,12,15,39,2.70
2016,12,12,15,40,2.70
2016,12,12,15,41,2.70
2016,12,12,15,42,2.70
2016,12,12,15,43,2.70
2016,12,12,15,44,2.70
2016,12,12,15,45,2.70
2016,12,12,15,46,2.70
2016,12,12,15,47,2.70
2016,12,12,15,48,2.70
2016,12,12,15,49,2.70
2016,12,12,15,50,2.70
2016,12,12,15,51,2.70
2016,12,12,15,52,2.70
2016,12,12,15,53,2.70
2016,12,12,15,54,2.70
2016,12,12,15,55,2.70
2016,12,12,15,56,2.70
2016,12,12,15,57,2.60
2016,12,12,15,58,2.60
2016,12,12,15,59,2.60
2016,12,12,16,00,2.60
2016,12,12,16,01,2.60
2016,12,12,16,02,2.70
2016,12,12,16,03,2.70
2016,12,12,16,04,2.70
2016,12,12,16,05,2.70
2016,12,12,16,06,2.70
2016,12,12,16,07,2.70
2016,12,12,16,08,2.70
2016,12,12,16,09,2.70
2016,12,12,16,10,2.70
2016,12,12,16,11,2.70
2016,12,12,16,12,2.70
2016,12,12,16,13,2.70
2016,12,12,16,14,2.70
2016,12,12,16,15,2.70
2016,12,12,16,16,2.70
2016,12,12,16,17,2.70
2016,12,12,16,18,2.70
2016,12,12,16,19,2.70
2016,12,12,16,20,2.70
2016,12,12,16,21,2.70
2016,12,12,16,22,2.70
2016,12,12,16,23,2.70
2016,12,12,16,24,2.70
2016,12,12,16,25,2.70
2016,12,12,16,26,2.60
2016,12,12,16,27,2.60
2016,12,12,16,28,2.60
2016,12,12,16,29,2.70
2016,12,12,16,30,2.70
2016,12,12,16,31,2.70
2016,12,12,16,32,2.70
2016,12,12,16,33,2.70
2016,12,12,16,34,2.70
2016,12,12,16,35,2.70
2016,12,12,16,36,2.70
2016,12,12,16,37,2.70
2016,12,12,16,38,2.70
2016,12,12,16,39,2.70
2016,12,12,16,40,2.70
2016,12,12,16,41,2.70
2016,12,12,16,42,2.70
2016,12,12,16,43,2.70
2016,12,12,16,44,2.70
2016,12,12,16,45,2.70
2016,12,12,16,46,2.70
2016,12,12,16,47,2.70
2016,12,12,16,48,2.70
2016,12,12,16,49,2.70
2016,12,12,16,50,2.70
2016,12,12,16,51,2.70
2016,12,12,16,52,2.70
2016,12,12,16,53,2.60
2016,12,12,16,54,2.60
2016,12,12,16,55,2.60
2016,12,12,16,56,2.60
2016,12,12,16,57,2.60
2016,12,12,16,58,2.60
2016,12,12,16,59,2.60
2016,12,12,17,00,2.60
2016,12,12,17,01,2.60
2016,12,12,17,02,2.60
2016,12,12,17,03,2.60
2016,12,12,17,04,2.60
2016,12,12,17,05,2.60
2016,12,12,17,06,2.60
2016,12,12,17,07,2.60
2016,12,12,17,08,2.60
2016,12,12,17,09,2.60
2016,12,12,17,10,2.60
2016,12,12,17,11,2.60
2016,12,12,17,12,2.60
2016,12,12,17,13,2.60
2016,12,12,17,14,2.60
2016,12,12,17,15,2.60
2016,12,12,17,16,2.60
2016,12,12,17,17,2.60
2016,12,12,17,18,2.60
2016,12,12,17,19,2.60
2016,12,12,17,20,2.60
2016,12,12,17,21,2.60
2016,12,12,17,22,2.70
2016,12,12,17,23,2.70
2016,12,12,17,24,2.60
2016,12,12,17,25,2.60
2016,12,12,17,26,2.60
2016,12,12,17,27,2.60
2016,12,12,17,28,2.60
2016,12,12,17,29,2.60
2016,12,12,17,30,2.60
2016,12,12,17,31,2.60
2016,12,12,17,32,2.60
2016,12,12,17,33,2.60
2016,12,12,17,34,2.60
2016,12,12,17,35,2.60
2016,12,12,17,36,2.60
2016,12,12,17,37,2.60
2016,12,12,17,38,2.50
2016,12,12,17,39,2.50
2016,12,12,17,40,2.50
2016,12,12,17,41,2.60
2016,12,12,17,42,2.60
2016,12,12,17,43,2.60
2016,12,12,17,44,2.60
2016,12,12,17,45,2.60
2016,12,12,17,46,2.60
2016,12,12,17,47,2.60
2016,12,12,17,48,2.60
2016,12,12,17,49,2.60
2016,12,12,17,50,2.70
2016,12,12,17,51,2.70
2016,12,12,17,52,2.70
2016,12,12,17,53,2.70
2016,12,12,17,54,2.70
2016,12,12,17,55,2.70
2016,12,12,17,56,2.60
2016,12,12,17,57,2.60
2016,12,12,17,58,2.60
2016,12,12,17,59,2.60
2016,12,12,18,00,2.60
2016,12,12,18,01,2.60
2016,12,12,18,02,2.50
2016,12,12,18,03,2.50
2016,12,12,18,04,2.50
2016,12,12,18,05,2.50
2016,12,12,18,06,2.50